| time (UTC) | temp C | wind direction | speed KPH | gust KPH | rain 1hr cm | rain 24hr cm | rain mn cm | humidity % | barometer mb |
| 20260507135006 | 12 | 68 | 8.0 | 17.7 | 0.00 | 0.00 | 0.00 | 82 | 1020.5 |
| 20260507134504 | 12 | 80 | 6.4 | 16.1 | 0.00 | 0.00 | 0.00 | 82 | 1020.6 |
| 20260507134003 | 12 | 73 | 4.8 | 16.1 | 0.00 | 0.00 | 0.00 | 83 | 1020.5 |
| 20260507133004 | 12 | 0 | 0.0 | 3.2 | 0.00 | 0.00 | 0.00 | 83 | 1020.6 |
| 20260507132503 | 12 | 63 | 1.6 | 12.9 | 0.00 | 0.00 | 0.00 | 83 | 1020.6 |
| 20260507132004 | 12 | 56 | 4.8 | 14.5 | 0.00 | 0.00 | 0.00 | 83 | 1020.5 |
| 20260507131504 | 12 | 56 | 4.8 | 16.1 | 0.00 | 0.00 | 0.00 | 83 | 1020.4 |
| 20260507131003 | 12 | 55 | 4.8 | 16.1 | 0.00 | 0.00 | 0.00 | 83 | 1020.5 |
| 20260507130504 | 12 | 42 | 4.8 | 19.3 | 0.00 | 0.00 | 0.00 | 83 | 1020.5 |
| 20260507130004 | 12 | 37 | 1.6 | 19.3 | 0.00 | 0.00 | 0.00 | 84 | 1020.4 |
| 20260507125503 | 12 | 0 | 0.0 | 0.0 | 0.00 | 0.00 | 0.00 | 84 | 1020.4 |
| 20260507125003 | 12 | 0 | 0.0 | 1.6 | 0.00 | 0.00 | 0.00 | 85 | 1020.4 |
| 20260507124505 | 11 | 41 | 1.6 | 12.9 | 0.00 | 0.00 | 0.00 | 85 | 1020.3 |
| 20260507124003 | 11 | 33 | 1.6 | 16.1 | 0.00 | 0.00 | 0.00 | 85 | 1020.2 |
| 20260507123004 | 11 | 0 | 0.0 | 1.6 | 0.00 | 0.00 | 0.00 | 85 | 1020.3 |
| 20260507122504 | 11 | 52 | 1.6 | 16.1 | 0.00 | 0.03 | 0.00 | 85 | 1020.3 |
| 20260507121504 | 12 | 37 | 3.2 | 16.1 | 0.00 | 0.13 | 0.00 | 85 | 1020.0 |
| 20260507121004 | 12 | 36 | 3.2 | 19.3 | 0.00 | 0.13 | 0.00 | 84 | 1019.9 |
| 20260507120503 | 12 | 37 | 3.2 | 19.3 | 0.00 | 0.15 | 0.00 | 84 | 1019.9 |
| 20260507120005 | 12 | 48 | 4.8 | 24.1 | 0.00 | 0.15 | 0.00 | 84 | 1020.0 |
| 20260507115504 | 12 | 39 | 6.4 | 24.1 | 0.00 | 0.15 | 0.00 | 84 | 1019.8 |
| 20260507115003 | 12 | 33 | 6.4 | 19.3 | 0.00 | 0.15 | 0.00 | 83 | 1019.8 |
| 20260507113504 | 12 | 37 | 6.4 | 17.7 | 0.00 | 0.20 | 0.00 | 83 | 1019.6 |
| 20260507113005 | 12 | 33 | 9.7 | 17.7 | 0.00 | 0.20 | 0.00 | 83 | 1019.4 |
| 20260507112504 | 12 | 33 | 8.0 | 16.1 | 0.00 | 0.20 | 0.00 | 83 | 1019.4 |
| 20260507112004 | 12 | 33 | 6.4 | 16.1 | 0.00 | 0.20 | 0.00 | 83 | 1019.2 |
| 20260507111003 | 12 | 33 | 8.0 | 25.7 | 0.00 | 0.20 | 0.00 | 83 | 1019.3 |
| 20260507110503 | 12 | 31 | 8.0 | 25.7 | 0.00 | 0.20 | 0.00 | 83 | 1019.2 |
| 20260507110004 | 12 | 30 | 8.0 | 27.4 | 0.00 | 0.20 | 0.00 | 83 | 1019.3 |
| 20260507105504 | 12 | 35 | 8.0 | 27.4 | 0.00 | 0.20 | 0.00 | 84 | 1019.3 |
| 20260507105004 | 12 | 35 | 9.7 | 22.5 | 0.00 | 0.20 | 0.00 | 84 | 1019.1 |
| 20260507104504 | 12 | 32 | 9.7 | 22.5 | 0.00 | 0.20 | 0.00 | 84 | 1019.2 |
| 20260507104004 | 12 | 34 | 9.7 | 22.5 | 0.00 | 0.20 | 0.00 | 84 | 1019.1 |
| 20260507103504 | 13 | 34 | 8.0 | 20.9 | 0.00 | 0.20 | 0.00 | 84 | 1019.1 |
| 20260507102504 | 13 | 39 | 1.6 | 17.7 | 0.00 | 0.20 | 0.00 | 83 | 1019.2 |
| 20260507102004 | 13 | 19 | 1.6 | 19.3 | 0.00 | 0.20 | 0.00 | 83 | 1019.3 |
| 20260507101004 | 13 | 0 | 0.0 | 14.5 | 0.00 | 0.20 | 0.00 | 82 | 1019.4 |
| 20260507100503 | 13 | 0 | 0.0 | 14.5 | 0.00 | 0.20 | 0.00 | 82 | 1019.5 |
| 20260507100005 | 13 | 0 | 0.0 | 9.7 | 0.00 | 0.20 | 0.00 | 82 | 1019.5 |
| 20260507095504 | 13 | 0 | 0.0 | 9.7 | 0.00 | 0.20 | 0.00 | 82 | 1019.4 |
| 20260507094504 | 13 | 0 | 0.0 | 11.3 | 0.00 | 0.20 | 0.00 | 82 | 1019.4 |
| 20260507093503 | 13 | 0 | 0.0 | 12.9 | 0.00 | 0.20 | 0.00 | 82 | 1019.2 |
| 20260507093004 | 13 | 0 | 0.0 | 16.1 | 0.00 | 0.20 | 0.00 | 82 | 1019.2 |
| 20260507092504 | 13 | 59 | 1.6 | 17.7 | 0.00 | 0.20 | 0.00 | 82 | 1019.1 |
| 20260507091504 | 13 | 0 | 0.0 | 16.1 | 0.00 | 0.20 | 0.00 | 81 | 1019.0 |
| 20260507091004 | 13 | 0 | 0.0 | 8.0 | 0.00 | 0.20 | 0.00 | 82 | 1019.0 |
| 20260507090503 | 13 | 0 | 0.0 | 9.7 | 0.00 | 0.20 | 0.00 | 81 | 1018.8 |
| 20260507090005 | 13 | 0 | 0.0 | 9.7 | 0.00 | 0.20 | 0.00 | 81 | 1018.8 |
| 20260507085503 | 13 | 0 | 0.0 | 6.4 | 0.00 | 0.20 | 0.00 | 81 | 1018.7 |
| 20260507084504 | 13 | 0 | 0.0 | 4.8 | 0.00 | 0.20 | 0.00 | 80 | 1018.6 |
| 20260507083503 | 13 | 0 | 0.0 | 9.7 | 0.00 | 0.20 | 0.00 | 80 | 1018.5 |
| 20260507082503 | 13 | 0 | 0.0 | 1.6 | 0.00 | 0.20 | 0.00 | 81 | 1018.5 |
| 20260507082003 | 13 | 0 | 0.0 | 0.0 | 0.00 | 0.20 | 0.00 | 81 | 1018.5 |
| 20260507081504 | 13 | 0 | 0.0 | 0.0 | 0.00 | 0.20 | 0.00 | 81 | 1018.3 |
| 20260507080504 | 13 | 0 | 0.0 | 1.6 | 0.00 | 0.20 | 0.00 | 81 | 1018.2 |
| 20260507080005 | 13 | 0 | 0.0 | 6.4 | 0.00 | 0.20 | 0.00 | 81 | 1018.2 |
| 20260507075504 | 13 | 0 | 0.0 | 6.4 | 0.00 | 0.20 | 0.00 | 81 | 1018.3 |
| 20260507074004 | 14 | 0 | 0.0 | 0.0 | 0.00 | 0.20 | 0.00 | 80 | 1018.1 |
| 20260507073503 | 14 | 0 | 0.0 | 0.0 | 0.00 | 0.20 | 0.00 | 80 | 1018.1 |
| 20260507073004 | 14 | 0 | 0.0 | 0.0 | 0.00 | 0.20 | 0.00 | 80 | 1017.8 |
| 20260507072503 | 14 | 0 | 0.0 | 1.6 | 0.00 | 0.20 | 0.00 | 80 | 1017.8 |
| 20260507072004 | 14 | 0 | 0.0 | 3.2 | 0.00 | 0.20 | 0.00 | 79 | 1017.7 |
| 20260507071504 | 14 | 0 | 0.0 | 3.2 | 0.00 | 0.20 | 0.00 | 79 | 1017.7 |
| 20260507071004 | 14 | 0 | 0.0 | 3.2 | 0.00 | 0.20 | 0.00 | 80 | 1017.7 |
| 20260507070504 | 14 | 0 | 0.0 | 3.2 | 0.00 | 0.20 | 0.00 | 79 | 1017.7 |
| 20260507070009 | 14 | 0 | 0.0 | 0.0 | 0.00 | 0.20 | 0.00 | 79 | 1017.7 |
| 20260507065504 | 14 | 0 | 0.0 | 1.6 | 0.00 | 0.20 | 0.00 | 79 | 1017.7 |
| 20260507064505 | 14 | 0 | 0.0 | 3.2 | 0.00 | 0.20 | 0.00 | 79 | 1017.4 |
| 20260507063504 | 15 | 0 | 0.0 | 1.6 | 0.00 | 0.20 | 0.00 | 81 | 1017.2 |
| 20260507063005 | 14 | 0 | 0.0 | 1.6 | 0.00 | 0.20 | 0.00 | 80 | 1017.0 |
| 20260507062504 | 14 | 0 | 0.0 | 0.0 | 0.00 | 0.20 | 0.00 | 80 | 1016.9 |
| 20260507062005 | 14 | 0 | 0.0 | 0.0 | 0.00 | 0.20 | 0.00 | 80 | 1016.8 |
| 20260507061505 | 14 | 0 | 0.0 | 0.0 | 0.00 | 0.20 | 0.00 | 80 | 1016.9 |
| 20260507061005 | 14 | 0 | 0.0 | 6.4 | 0.00 | 0.20 | 0.00 | 80 | 1016.8 |
| 20260507060505 | 15 | 0 | 0.0 | 6.4 | 0.00 | 0.20 | 0.00 | 80 | 1016.8 |
| 20260507055505 | 15 | 0 | 0.0 | 0.0 | 0.00 | 0.20 | 0.00 | 79 | 1016.9 |
| 20260507055006 | 15 | 0 | 0.0 | 0.0 | 0.00 | 0.20 | 0.00 | 79 | 1016.9 |
| 20260507054505 | 15 | 0 | 0.0 | 3.2 | 0.00 | 0.20 | 0.00 | 79 | 1016.9 |
| 20260507054006 | 15 | 0 | 0.0 | 3.2 | 0.00 | 0.20 | 0.00 | 79 | 1017.0 |
| 20260507053504 | 15 | 0 | 0.0 | 1.6 | 0.00 | 0.20 | 0.00 | 78 | 1016.9 |
| 20260507053005 | 15 | 0 | 0.0 | 1.6 | 0.00 | 0.20 | 0.00 | 78 | 1017.0 |
| 20260507052506 | 15 | 0 | 0.0 | 1.6 | 0.00 | 0.20 | 0.00 | 78 | 1016.9 |
| 20260507052004 | 15 | 0 | 0.0 | 1.6 | 0.00 | 0.20 | 0.00 | 78 | 1016.8 |
| 20260507051005 | 15 | 0 | 0.0 | 14.5 | 0.00 | 0.20 | 0.00 | 78 | 1016.8 |
| 20260507050505 | 15 | 78 | 1.6 | 14.5 | 0.00 | 0.20 | 0.00 | 78 | 1016.6 |
| 20260507050006 | 15 | 0 | 0.0 | 11.3 | 0.00 | 0.20 | 0.00 | 78 | 1016.9 |
| 20260507045505 | 16 | 0 | 0.0 | 4.8 | 0.00 | 0.20 | 0.20 | 78 | 1016.8 |
| 20260507045005 | 16 | 0 | 0.0 | 4.8 | 0.00 | 0.20 | 0.20 | 78 | 1016.7 |
| 20260507044506 | 16 | 0 | 0.0 | 4.8 | 0.00 | 0.20 | 0.20 | 78 | 1016.7 |
| 20260507044004 | 16 | 0 | 0.0 | 4.8 | 0.00 | 0.20 | 0.20 | 79 | 1016.7 |
| 20260507043005 | 16 | 0 | 0.0 | 0.0 | 0.00 | 0.20 | 0.20 | 81 | 1016.5 |
| 20260507042504 | 16 | 0 | 0.0 | 1.6 | 0.00 | 0.20 | 0.20 | 80 | 1016.3 |
| 20260507042005 | 16 | 0 | 0.0 | 1.6 | 0.00 | 0.20 | 0.20 | 80 | 1016.3 |
| 20260507041505 | 16 | 0 | 0.0 | 0.0 | 0.00 | 0.20 | 0.20 | 79 | 1016.4 |
| 20260507041004 | 16 | 0 | 0.0 | 0.0 | 0.00 | 0.20 | 0.20 | 79 | 1016.2 |
| 20260507040005 | 16 | 0 | 0.0 | 0.0 | 0.00 | 0.20 | 0.20 | 79 | 1016.0 |
| 20260507035504 | 17 | 0 | 0.0 | 0.0 | 0.00 | 0.20 | 0.20 | 78 | 1015.9 |
| 20260507035005 | 17 | 0 | 0.0 | 0.0 | 0.00 | 0.20 | 0.20 | 78 | 1015.7 |
| 20260507034506 | 17 | 0 | 0.0 | 6.4 | 0.00 | 0.20 | 0.20 | 78 | 1015.6 |
| 20260507034005 | 17 | 115 | 1.6 | 8.0 | 0.00 | 0.20 | 0.20 | 77 | 1015.5 |
| 20260507033505 | 17 | 118 | 1.6 | 8.0 | 0.00 | 0.20 | 0.20 | 77 | 1015.3 |
| 20260507033005 | 17 | 0 | 0.0 | 6.4 | 0.00 | 0.20 | 0.20 | 77 | 1015.2 |
| 20260507032004 | 17 | 0 | 0.0 | 4.8 | 0.00 | 0.20 | 0.20 | 76 | 1015.2 |
| 20260507031505 | 17 | 109 | 1.6 | 9.7 | 0.00 | 0.20 | 0.20 | 75 | 1015.1 |
| 20260507031005 | 17 | 0 | 0.0 | 9.7 | 0.00 | 0.20 | 0.20 | 75 | 1015.0 |
| 20260507030005 | 17 | 115 | 1.6 | 9.7 | 0.00 | 0.20 | 0.20 | 74 | 1014.9 |
| 20260507025504 | 18 | 112 | 1.6 | 9.7 | 0.00 | 0.20 | 0.20 | 74 | 1015.0 |
| 20260507025005 | 18 | 109 | 1.6 | 9.7 | 0.00 | 0.20 | 0.20 | 73 | 1015.0 |
| 20260507024504 | 18 | 0 | 0.0 | 0.0 | 0.00 | 0.20 | 0.20 | 73 | 1014.9 |
| 20260507024005 | 18 | 0 | 0.0 | 0.0 | 0.00 | 0.20 | 0.20 | 72 | 1014.8 |
| 20260507022505 | 18 | 0 | 0.0 | 0.0 | 0.00 | 0.20 | 0.20 | 71 | 1014.5 |
| 20260507022005 | 18 | 0 | 0.0 | 0.0 | 0.00 | 0.20 | 0.20 | 70 | 1014.4 |
| 20260507021505 | 18 | 0 | 0.0 | 0.0 | 0.00 | 0.20 | 0.20 | 70 | 1014.3 |
| 20260507020504 | 19 | 119 | 1.6 | 17.7 | 0.00 | 0.20 | 0.20 | 68 | 1014.4 |
| 20260507015506 | 20 | 0 | 0.0 | 1.6 | 0.00 | 0.20 | 0.20 | 66 | 1014.1 |
| 20260507015004 | 20 | 0 | 0.0 | 0.0 | 0.00 | 0.20 | 0.20 | 65 | 1014.1 |
| 20260507014505 | 20 | 0 | 0.0 | 0.0 | 0.00 | 0.20 | 0.20 | 64 | 1014.1 |
| 20260507014005 | 20 | 0 | 0.0 | 0.0 | 0.00 | 0.20 | 0.20 | 64 | 1014.0 |
| 20260507013504 | 20 | 0 | 0.0 | 0.0 | 0.00 | 0.20 | 0.20 | 64 | 1013.9 |
| 20260507013005 | 20 | 0 | 0.0 | 0.0 | 0.00 | 0.20 | 0.20 | 63 | 1013.9 |
| 20260507012505 | 20 | 0 | 0.0 | 0.0 | 0.00 | 0.20 | 0.20 | 63 | 1013.9 |
| 20260507012004 | 20 | 0 | 0.0 | 0.0 | 0.00 | 0.20 | 0.20 | 63 | 1013.9 |
| 20260507011505 | 20 | 0 | 0.0 | 1.6 | 0.00 | 0.20 | 0.20 | 63 | 1013.9 |
| 20260507010504 | 21 | 0 | 0.0 | 0.0 | 0.00 | 0.20 | 0.20 | 63 | 1013.6 |
| 20260507005504 | 21 | 0 | 0.0 | 8.0 | 0.00 | 0.20 | 0.20 | 62 | 1013.6 |
| 20260507005005 | 21 | 0 | 0.0 | 8.0 | 0.00 | 0.20 | 0.20 | 62 | 1013.6 |
| 20260507004505 | 21 | 95 | 1.6 | 12.9 | 0.00 | 0.20 | 0.20 | 62 | 1013.5 |
| 20260507004005 | 21 | 88 | 3.2 | 12.9 | 0.00 | 0.20 | 0.20 | 62 | 1013.5 |
| 20260507002504 | 21 | 114 | 1.6 | 11.3 | 0.00 | 0.20 | 0.20 | 62 | 1013.3 |
| 20260507002005 | 21 | 0 | 0.0 | 8.0 | 0.00 | 0.20 | 0.20 | 62 | 1013.3 |
| 20260507001505 | 21 | 0 | 0.0 | 14.5 | 0.00 | 0.20 | 0.20 | 62 | 1013.2 |
| 20260507001005 | 21 | 0 | 0.0 | 14.5 | 0.00 | 0.20 | 0.20 | 62 | 1013.2 |
| 20260507000005 | 21 | 0 | 0.0 | 0.0 | 0.00 | 0.20 | 0.20 | 61 | 1013.2 |
| 20260506235505 | 21 | 0 | 0.0 | 0.0 | 0.00 | 0.20 | 0.20 | 61 | 1013.4 |
| 20260506235004 | 21 | 0 | 0.0 | 0.0 | 0.00 | 0.20 | 0.20 | 61 | 1013.4 |
| 20260506234505 | 21 | 0 | 0.0 | 0.0 | 0.00 | 0.20 | 0.20 | 62 | 1013.3 |
| 20260506234005 | 21 | 0 | 0.0 | 0.0 | 0.00 | 0.20 | 0.20 | 61 | 1013.3 |
| 20260506233504 | 21 | 0 | 0.0 | 0.0 | 0.00 | 0.20 | 0.20 | 61 | 1013.1 |
| 20260506233005 | 21 | 0 | 0.0 | 0.0 | 0.00 | 0.20 | 0.20 | 61 | 1013.2 |
| 20260506232504 | 21 | 0 | 0.0 | 0.0 | 0.00 | 0.20 | 0.20 | 61 | 1013.3 |
| 20260506232004 | 21 | 0 | 0.0 | 0.0 | 0.00 | 0.20 | 0.20 | 62 | 1013.3 |
| 20260506231505 | 21 | 0 | 0.0 | 0.0 | 0.00 | 0.20 | 0.20 | 62 | 1013.3 |
| 20260506231005 | 22 | 0 | 0.0 | 0.0 | 0.00 | 0.20 | 0.20 | 61 | 1013.2 |
| 20260506230505 | 22 | 0 | 0.0 | 0.0 | 0.00 | 0.20 | 0.20 | 61 | 1013.2 |
| 20260506230005 | 22 | 0 | 0.0 | 0.0 | 0.00 | 0.20 | 0.20 | 61 | 1013.3 |
| 20260506225504 | 22 | 0 | 0.0 | 0.0 | 0.00 | 0.20 | 0.20 | 60 | 1013.2 |
| 20260506224505 | 22 | 0 | 0.0 | 0.0 | 0.00 | 0.20 | 0.20 | 61 | 1013.2 |
| 20260506224004 | 22 | 0 | 0.0 | 0.0 | 0.00 | 0.20 | 0.20 | 61 | 1013.1 |
| 20260506223505 | 22 | 0 | 0.0 | 0.0 | 0.00 | 0.20 | 0.20 | 62 | 1013.0 |
| 20260506222004 | 22 | 0 | 0.0 | 0.0 | 0.00 | 0.20 | 0.20 | 61 | 1013.1 |
| 20260506221505 | 22 | 0 | 0.0 | 0.0 | 0.00 | 0.20 | 0.20 | 61 | 1013.1 |
| 20260506221004 | 22 | 0 | 0.0 | 0.0 | 0.00 | 0.20 | 0.20 | 61 | 1013.1 |
| 20260506220504 | 22 | 0 | 0.0 | 0.0 | 0.00 | 0.20 | 0.20 | 62 | 1013.1 |
| 20260506220005 | 22 | 0 | 0.0 | 0.0 | 0.00 | 0.20 | 0.20 | 61 | 1013.0 |
| 20260506215505 | 22 | 0 | 0.0 | 0.0 | 0.00 | 0.20 | 0.20 | 62 | 1013.2 |
| 20260506215004 | 22 | 0 | 0.0 | 0.0 | 0.00 | 0.20 | 0.20 | 61 | 1013.2 |
| 20260506214004 | 22 | 0 | 0.0 | 0.0 | 0.00 | 0.20 | 0.20 | 61 | 1013.4 |
| 20260506213505 | 22 | 0 | 0.0 | 0.0 | 0.00 | 0.20 | 0.20 | 62 | 1013.4 |
| 20260506213005 | 21 | 0 | 0.0 | 0.0 | 0.00 | 0.20 | 0.20 | 63 | 1013.4 |
| 20260506212504 | 21 | 0 | 0.0 | 0.0 | 0.00 | 0.20 | 0.20 | 63 | 1013.4 |
| 20260506212004 | 21 | 0 | 0.0 | 0.0 | 0.00 | 0.20 | 0.20 | 65 | 1013.4 |
| 20260506211505 | 21 | 0 | 0.0 | 0.0 | 0.00 | 0.20 | 0.20 | 64 | 1013.5 |
| 20260506210504 | 21 | 0 | 0.0 | 3.2 | 0.00 | 0.20 | 0.20 | 63 | 1013.4 |
| 20260506205504 | 21 | 0 | 0.0 | 0.0 | 0.00 | 0.20 | 0.20 | 64 | 1013.6 |
| 20260506205004 | 21 | 0 | 0.0 | 0.0 | 0.00 | 0.20 | 0.20 | 65 | 1013.6 |
| 20260506204505 | 21 | 0 | 0.0 | 0.0 | 0.00 | 0.20 | 0.20 | 64 | 1013.8 |
| 20260506204004 | 20 | 0 | 0.0 | 0.0 | 0.00 | 0.20 | 0.20 | 65 | 1013.8 |
| 20260506203504 | 20 | 0 | 0.0 | 0.0 | 0.00 | 0.20 | 0.20 | 65 | 1013.8 |
| 20260506203005 | 20 | 0 | 0.0 | 0.0 | 0.00 | 0.20 | 0.20 | 65 | 1013.9 |
| 20260506202505 | 20 | 0 | 0.0 | 0.0 | 0.00 | 0.20 | 0.20 | 68 | 1014.2 |
| 20260506202004 | 20 | 0 | 0.0 | 0.0 | 0.00 | 0.20 | 0.20 | 68 | 1014.2 |
| 20260506201504 | 20 | 0 | 0.0 | 1.6 | 0.00 | 0.20 | 0.20 | 69 | 1014.4 |
| 20260506201004 | 19 | 0 | 0.0 | 1.6 | 0.00 | 0.20 | 0.20 | 69 | 1014.4 |
| 20260506200505 | 19 | 0 | 0.0 | 1.6 | 0.00 | 0.20 | 0.20 | 69 | 1014.4 |
| 20260506200005 | 18 | 0 | 0.0 | 1.6 | 0.00 | 0.20 | 0.20 | 71 | 1014.6 |
| 20260506195504 | 18 | 0 | 0.0 | 0.0 | 0.00 | 0.20 | 0.20 | 70 | 1014.6 |
| 20260506195004 | 18 | 0 | 0.0 | 0.0 | 0.00 | 0.20 | 0.20 | 70 | 1014.6 |
| 20260506194505 | 18 | 0 | 0.0 | 0.0 | 0.00 | 0.20 | 0.20 | 70 | 1014.6 |
| 20260506194004 | 18 | 0 | 0.0 | 1.6 | 0.00 | 0.20 | 0.20 | 69 | 1014.8 |
| 20260506193505 | 18 | 0 | 0.0 | 1.6 | 0.00 | 0.20 | 0.20 | 71 | 1014.7 |
| 20260506192504 | 17 | 0 | 0.0 | 1.6 | 0.00 | 0.20 | 0.20 | 72 | 1015.0 |
| 20260506191504 | 17 | 0 | 0.0 | 0.0 | 0.00 | 0.20 | 0.20 | 73 | 1014.9 |
| 20260506191005 | 17 | 0 | 0.0 | 0.0 | 0.00 | 0.20 | 0.20 | 73 | 1015.0 |
| 20260506190504 | 17 | 0 | 0.0 | 0.0 | 0.00 | 0.20 | 0.20 | 73 | 1015.0 |
| 20260506190006 | 17 | 0 | 0.0 | 0.0 | 0.00 | 0.20 | 0.20 | 74 | 1015.1 |
| 20260506185504 | 17 | 0 | 0.0 | 0.0 | 0.00 | 0.20 | 0.20 | 73 | 1015.2 |
| 20260506185005 | 17 | 0 | 0.0 | 0.0 | 0.00 | 0.20 | 0.20 | 73 | 1015.2 |
| 20260506183504 | 17 | 0 | 0.0 | 0.0 | 0.00 | 0.20 | 0.20 | 73 | 1015.4 |
| 20260506183006 | 17 | 0 | 0.0 | 0.0 | 0.00 | 0.20 | 0.20 | 73 | 1015.5 |
| 20260506182504 | 17 | 0 | 0.0 | 0.0 | 0.00 | 0.20 | 0.20 | 73 | 1015.4 |
| 20260506182004 | 17 | 0 | 0.0 | 0.0 | 0.00 | 0.20 | 0.20 | 72 | 1015.5 |
| 20260506181004 | 17 | 0 | 0.0 | 0.0 | 0.00 | 0.20 | 0.20 | 72 | 1015.5 |
| 20260506180504 | 17 | 0 | 0.0 | 0.0 | 0.00 | 0.20 | 0.20 | 73 | 1015.5 |
| 20260506180005 | 17 | 0 | 0.0 | 0.0 | 0.00 | 0.20 | 0.20 | 72 | 1015.6 |
| 20260506175004 | 17 | 0 | 0.0 | 0.0 | 0.00 | 0.20 | 0.20 | 73 | 1015.6 |
| 20260506174504 | 17 | 0 | 0.0 | 0.0 | 0.00 | 0.20 | 0.20 | 73 | 1015.7 |
| 20260506174004 | 17 | 0 | 0.0 | 0.0 | 0.00 | 0.20 | 0.20 | 72 | 1015.6 |
| 20260506173504 | 17 | 0 | 0.0 | 0.0 | 0.00 | 0.20 | 0.20 | 73 | 1015.7 |
| 20260506173004 | 17 | 0 | 0.0 | 0.0 | 0.00 | 0.20 | 0.20 | 74 | 1015.8 |
| 20260506172505 | 16 | 0 | 0.0 | 8.0 | 0.00 | 0.20 | 0.20 | 75 | 1015.8 |
| 20260506172004 | 16 | 0 | 0.0 | 8.0 | 0.00 | 0.20 | 0.20 | 75 | 1015.6 |
| 20260506171505 | 16 | 354 | 1.6 | 14.5 | 0.00 | 0.20 | 0.20 | 74 | 1015.7 |
| 20260506171004 | 16 | 355 | 1.6 | 14.5 | 0.00 | 0.20 | 0.20 | 74 | 1015.6 |
| 20260506170504 | 16 | 0 | 0.0 | 11.3 | 0.00 | 0.20 | 0.20 | 75 | 1015.6 |
| 20260506170004 | 16 | 11 | 1.6 | 12.9 | 0.00 | 0.20 | 0.20 | 74 | 1015.7 |
| 20260506165504 | 16 | 20 | 1.6 | 12.9 | 0.00 | 0.20 | 0.20 | 75 | 1015.8 |
| 20260506165004 | 16 | 34 | 1.6 | 9.7 | 0.00 | 0.20 | 0.20 | 74 | 1015.7 |
| 20260506164505 | 16 | 31 | 4.8 | 12.9 | 0.00 | 0.20 | 0.20 | 75 | 1015.7 |
| 20260506164004 | 16 | 30 | 8.0 | 16.1 | 0.00 | 0.20 | 0.20 | 76 | 1015.6 |
| 20260506163504 | 16 | 25 | 4.8 | 20.9 | 0.00 | 0.20 | 0.20 | 76 | 1015.5 |
| 20260506163004 | 16 | 10 | 1.6 | 20.9 | 0.00 | 0.20 | 0.20 | 75 | 1015.4 |
| 20260506162504 | 15 | 0 | 0.0 | 0.0 | 0.00 | 0.20 | 0.20 | 77 | 1015.5 |
| 20260506162004 | 15 | 0 | 0.0 | 0.0 | 0.00 | 0.20 | 0.20 | 77 | 1015.5 |
| 20260506161505 | 15 | 0 | 0.0 | 0.0 | 0.00 | 0.20 | 0.20 | 79 | 1015.4 |
| 20260506161004 | 15 | 0 | 0.0 | 0.0 | 0.00 | 0.20 | 0.20 | 79 | 1015.3 |
| 20260506155004 | 14 | 0 | 0.0 | 1.6 | 0.00 | 0.20 | 0.20 | 81 | 1015.2 |
| 20260506154505 | 13 | 0 | 0.0 | 0.0 | 0.00 | 0.20 | 0.20 | 80 | 1015.2 |
| 20260506154004 | 13 | 0 | 0.0 | 1.6 | 0.00 | 0.20 | 0.20 | 81 | 1015.2 |
| 20260506153504 | 13 | 0 | 0.0 | 1.6 | 0.00 | 0.20 | 0.20 | 81 | 1015.1 |
| 20260506153004 | 13 | 0 | 0.0 | 0.0 | 0.00 | 0.20 | 0.20 | 82 | 1015.0 |
| 20260506152504 | 13 | 0 | 0.0 | 3.2 | 0.00 | 0.20 | 0.20 | 82 | 1015.1 |
| 20260506152004 | 13 | 0 | 0.0 | 3.2 | 0.00 | 0.20 | 0.20 | 83 | 1015.0 |
| 20260506151003 | 13 | 0 | 0.0 | 3.2 | 0.00 | 0.20 | 0.20 | 84 | 1014.7 |
| 20260506150504 | 13 | 0 | 0.0 | 4.8 | 0.00 | 0.20 | 0.20 | 84 | 1014.6 |
| 20260506144504 | 12 | 0 | 0.0 | 3.2 | 0.00 | 0.20 | 0.20 | 87 | 1014.5 |
| 20260506144004 | 12 | 0 | 0.0 | 3.2 | 0.00 | 0.20 | 0.20 | 87 | 1014.7 |
| 20260506143504 | 12 | 17 | 3.2 | 16.1 | 0.00 | 0.20 | 0.20 | 88 | 1014.7 |
| 20260506143005 | 12 | 17 | 3.2 | 16.1 | 0.00 | 0.20 | 0.20 | 89 | 1014.5 |
| 20260506142003 | 12 | 13 | 3.2 | 17.7 | 0.00 | 0.20 | 0.20 | 89 | 1014.4 |
| 20260506141505 | 12 | 16 | 8.0 | 20.9 | 0.00 | 0.20 | 0.20 | 89 | 1014.5 |
| 20260506141004 | 12 | 22 | 8.0 | 20.9 | 0.00 | 0.20 | 0.20 | 89 | 1014.0 |
| 20260506140504 | 12 | 32 | 3.2 | 16.1 | 0.00 | 0.20 | 0.20 | 90 | 1013.9 |
| 20260506140004 | 11 | 28 | 4.8 | 14.5 | 0.00 | 0.20 | 0.20 | 91 | 1014.0 |
| 20260506135504 | 11 | 30 | 3.2 | 14.5 | 0.00 | 0.20 | 0.20 | 91 | 1013.8 |